K2BIG Weather Reports


Display with metric or nautical units.
time (UTC)temp
F
wind
direction
speed
MPH
gust
MPH
rain 1hr
in
rain 24hr
in
rain mn
in
humidity
%
barometer
mb
20260510002016 52 0.0 2.0 0.00 0.21 0.21 95 1009.9
20260510001517 52 0.0 3.0 0.00 0.21 0.21 96 1010.0
20260510001016 52 0.0 2.0 0.00 0.21 0.21 95 1009.9
20260510000517 53 0.0 2.0 0.00 0.21 0.21 95 1009.8
20260510000016 53 0.0 0.0 0.00 0.21 0.21 95 1009.7
20260509235516 53 0.0 0.0 0.00 0.21 0.21 95 1009.8
20260509235016 53 0.0 2.0 0.00 0.21 0.21 95 1009.7
20260509234516 53 0.0 0.0 0.00 0.21 0.21 95 1009.6
20260509234016 54 0.0 0.0 0.00 0.21 0.21 95 1009.6
20260509233516 54 0.0 0.0 0.00 0.21 0.21 95 1009.5
20260509233016 54 0.0 0.0 0.00 0.21 0.21 96 1009.6
20260509232516 54 0.0 3.0 0.00 0.21 0.21 96 1009.6
20260509232016 54 0.0 3.0 0.00 0.21 0.21 95 1009.5
20260509231516 54 0.0 2.0 0.00 0.21 0.21 96 1009.4
20260509231016 55 0.0 2.0 0.00 0.21 0.21 96 1009.6
20260509230517 55 158 1.0 4.0 0.00 0.21 0.21 96 1009.7
20260509230016 55 0.0 2.0 0.00 0.21 0.21 96 1009.7
20260509225516 55 158 1.0 4.0 0.00 0.21 0.21 96 1009.7
20260509225016 55 0.0 2.0 0.00 0.21 0.21 96 1009.7
20260509224516 55 180 1.0 5.0 0.00 0.21 0.21 96 1009.7
20260509224016 55 0.0 1.0 0.00 0.21 0.21 97 1009.7
20260509223516 54 0.0 2.0 0.00 0.21 0.21 96 1009.7
20260509223016 54 0.0 1.0 0.00 0.21 0.21 96 1009.7
20260509222516 54 0.0 3.0 0.00 0.21 0.21 96 1009.7
20260509222016 54 0.0 5.0 0.00 0.21 0.21 96 1009.7
20260509221516 54 0.0 0.0 0.00 0.21 0.21 96 1009.6
20260509221016 54 0.0 0.0 0.00 0.21 0.21 96 1009.5
20260509220516 54 0.0 2.0 0.00 0.21 0.21 96 1009.5
20260509220016 55 0.0 2.0 0.00 0.21 0.21 96 1009.7
20260509215516 55 0.0 2.0 0.01 0.21 0.21 96 1009.7
20260509215016 55 0.0 2.0 0.01 0.21 0.21 96 1009.9
20260509214516 55 0.0 2.0 0.01 0.21 0.21 96 1009.9
20260509214016 55 0.0 2.0 0.01 0.21 0.21 96 1010.0
20260509213516 55 0.0 3.0 0.01 0.21 0.21 96 1010.1
20260509213016 55 180 1.0 4.0 0.01 0.21 0.21 96 1010.1
20260509212516 55 0.0 1.0 0.01 0.21 0.21 96 1009.8
20260509212016 55 0.0 1.0 0.02 0.21 0.21 96 1010.0
20260509211516 55 0.0 3.0 0.02 0.21 0.21 96 1010.1
20260509211016 55 158 1.0 4.0 0.02 0.21 0.21 96 1010.2
20260509210516 55 158 1.0 4.0 0.03 0.21 0.21 97 1010.2
20260509210016 55 0.0 2.0 0.03 0.21 0.21 96 1010.1
20260509205516 55 0.0 1.0 0.02 0.20 0.20 96 1010.1
20260509205016 55 0.0 2.0 0.02 0.20 0.20 96 1010.2
20260509204516 54 0.0 2.0 0.03 0.20 0.20 96 1010.3
20260509204016 54 0.0 1.0 0.03 0.20 0.20 96 1010.4
20260509203516 54 0.0 0.0 0.03 0.20 0.20 96 1010.5
20260509203016 54 0.0 2.0 0.03 0.20 0.20 96 1010.5
20260509202516 54 0.0 1.0 0.03 0.20 0.20 96 1010.6
20260509202016 54 0.0 2.0 0.02 0.19 0.19 96 1010.7
20260509201516 54 0.0 3.0 0.03 0.19 0.19 96 1010.7
20260509201016 54 0.0 1.0 0.03 0.19 0.19 96 1010.8
20260509200516 54 180 1.0 4.0 0.02 0.18 0.18 95 1010.8
20260509200016 54 203 1.0 4.0 0.02 0.18 0.18 95 1010.9
20260509195516 54 158 1.0 4.0 0.03 0.18 0.18 96 1010.9
20260509195016 54 0.0 2.0 0.03 0.18 0.18 95 1011.0
20260509194516 54 180 1.0 5.0 0.03 0.17 0.17 95 1011.1
20260509194016 54 0.0 5.0 0.04 0.17 0.17 95 1011.1
20260509193516 54 0.0 4.0 0.04 0.17 0.17 95 1011.1
20260509193016 54 180 1.0 4.0 0.05 0.17 0.17 95 1011.2
20260509192516 54 158 1.0 4.0 0.05 0.17 0.17 95 1011.2
20260509192017 54 203 1.0 4.0 0.05 0.17 0.17 95 1011.3
20260509191516 54 180 2.0 5.0 0.05 0.16 0.16 95 1011.4
20260509191016 54 180 1.0 4.0 0.05 0.16 0.16 95 1011.4
20260509190516 54 158 3.0 7.0 0.05 0.16 0.16 95 1011.5
20260509190016 54 180 2.0 6.0 0.05 0.16 0.16 95 1011.6
20260509185516 54 203 2.0 6.0 0.05 0.15 0.15 95 1011.8
20260509185016 54 225 1.0 5.0 0.05 0.15 0.15 95 1011.9
20260509184516 54 203 2.0 7.0 0.04 0.14 0.14 95 1011.9
20260509184016 54 203 2.0 7.0 0.03 0.13 0.14 95 1011.9
20260509183516 54 225 3.0 8.0 0.04 0.13 0.13 95 1011.8
20260509183016 54 180 2.0 6.0 0.03 0.12 0.12 95 1011.9
20260509182516 55 203 3.0 9.0 0.03 0.12 0.12 95 1011.7
20260509182016 55 180 3.0 9.0 0.03 0.12 0.12 95 1011.8
20260509181516 55 203 2.0 8.0 0.03 0.11 0.11 95 1011.7
20260509181016 55 225 2.0 4.0 0.03 0.12 0.11 96 1011.7
20260509180516 55 203 2.0 4.0 0.03 0.12 0.11 96 1011.6
20260509180016 55 203 1.0 4.0 0.03 0.12 0.11 96 1011.6
20260509175515 55 270 1.0 5.0 0.02 0.11 0.10 96 1011.6
20260509175016 55 0.0 1.0 0.02 0.11 0.10 96 1011.4
20260509174515 55 270 1.0 3.0 0.02 0.11 0.10 96 1011.5
20260509174016 55 0.0 2.0 0.02 0.11 0.10 96 1011.5
20260509173516 55 0.0 2.0 0.01 0.10 0.09 96 1011.5
20260509173016 54 0.0 0.0 0.01 0.10 0.09 96 1011.3
20260509172516 54 0.0 0.0 0.01 0.10 0.09 96 1011.4
20260509172015 54 0.0 0.0 0.02 0.10 0.09 96 1011.2
20260509171516 54 0.0 0.0 0.01 0.09 0.08 95 1011.2
20260509171015 54 0.0 0.0 0.01 0.09 0.08 95 1011.3
20260509170515 54 0.0 0.0 0.01 0.09 0.08 95 1011.3
20260509170015 54 0.0 0.0 0.01 0.09 0.08 95 1011.3
20260509165516 54 0.0 0.0 0.02 0.09 0.08 95 1011.3
20260509165015 54 0.0 0.0 0.02 0.09 0.08 95 1011.4
20260509164515 54 0.0 0.0 0.02 0.09 0.08 95 1011.5
20260509164015 54 0.0 0.0 0.02 0.09 0.08 96 1011.7
20260509163515 54 0.0 0.0 0.02 0.09 0.08 96 1011.7
20260509163015 54 0.0 0.0 0.03 0.09 0.08 96 1011.7
20260509162515 53 0.0 0.0 0.03 0.09 0.08 95 1011.7
20260509162015 53 0.0 0.0 0.02 0.08 0.07 95 1011.7
20260509161515 53 0.0 0.0 0.02 0.08 0.07 95 1011.7
20260509161015 53 0.0 0.0 0.02 0.08 0.07 95 1011.8
20260509160515 53 0.0 0.0 0.02 0.08 0.07 95 1011.9
20260509160015 53 0.0 0.0 0.02 0.08 0.07 95 1012.0
20260509155515 53 0.0 0.0 0.01 0.07 0.06 95 1012.1
20260509155015 52 0.0 0.0 0.01 0.07 0.06 95 1012.2
20260509154515 52 0.0 0.0 0.01 0.07 0.06 95 1012.3
20260509154015 52 0.0 0.0 0.01 0.07 0.06 95 1012.4
20260509153515 52 0.0 0.0 0.01 0.07 0.06 95 1012.5
20260509153015 52 0.0 0.0 0.00 0.06 0.05 95 1012.6
20260509152515 52 0.0 0.0 0.00 0.06 0.05 94 1012.5
20260509152015 52 0.0 0.0 0.00 0.06 0.05 94 1012.5
20260509151515 52 0.0 0.0 0.00 0.06 0.05 94 1012.4
20260509151015 52 0.0 1.0 0.00 0.06 0.05 94 1012.5
20260509150515 52 0.0 0.0 0.00 0.06 0.05 94 1012.4
20260509150015 52 0.0 1.0 0.00 0.06 0.05 94 1012.2
20260509145515 52 0.0 1.0 0.00 0.06 0.05 95 1012.2
20260509145015 52 0.0 1.0 0.00 0.06 0.05 95 1012.0
20260509144515 52 270 1.0 3.0 0.00 0.06 0.05 95 1012.1
20260509144015 52 0.0 1.0 0.00 0.06 0.05 96 1012.2
20260509143515 51 0.0 2.0 0.00 0.06 0.05 96 1012.2
20260509143015 51 0.0 1.0 0.00 0.06 0.05 96 1012.2
20260509142515 51 0.0 2.0 0.00 0.06 0.05 96 1012.3
20260509142015 51 270 1.0 2.0 0.00 0.06 0.05 96 1012.4
20260509141515 51 0.0 0.0 0.00 0.06 0.05 96 1012.2
20260509141015 51 270 1.0 3.0 0.00 0.06 0.05 96 1012.3
20260509140515 50 270 1.0 2.0 0.01 0.06 0.05 96 1012.2
20260509140015 50 0.0 1.0 0.01 0.06 0.05 96 1012.2
20260509135515 50 0.0 1.0 0.01 0.06 0.05 96 1012.4
20260509135015 50 0.0 2.0 0.01 0.06 0.05 96 1012.4
20260509134515 50 270 1.0 2.0 0.01 0.06 0.05 96 1012.4
20260509134015 50 0.0 2.0 0.01 0.06 0.05 96 1012.6
20260509133515 49 0.0 1.0 0.01 0.06 0.05 96 1012.5
20260509133015 49 0.0 2.0 0.01 0.06 0.05 96 1012.5
20260509132516 49 0.0 0.0 0.01 0.06 0.05 96 1012.5
20260509132015 49 0.0 0.0 0.01 0.06 0.05 96 1012.5
20260509131515 49 0.0 0.0 0.01 0.06 0.05 96 1012.6
20260509131015 48 0.0 0.0 0.01 0.06 0.05 96 1012.6
20260509130515 48 0.0 1.0 0.00 0.05 0.04 96 1012.7
20260509130015 48 0.0 0.0 0.00 0.05 0.04 96 1012.8
20260509125515 48 0.0 0.0 0.00 0.05 0.04 96 1012.8
20260509125015 47 0.0 0.0 0.00 0.05 0.04 96 1012.6
20260509124515 47 0.0 0.0 0.00 0.05 0.04 96 1012.5
20260509124015 47 0.0 0.0 0.00 0.05 0.04 96 1012.4
20260509123515 47 0.0 0.0 0.00 0.05 0.04 96 1012.3
20260509123015 47 0.0 2.0 0.00 0.05 0.04 96 1012.3
20260509122515 47 0.0 0.0 0.00 0.05 0.04 96 1012.3
20260509122015 47 0.0 0.0 0.00 0.05 0.04 96 1012.3
20260509121515 47 0.0 0.0 0.00 0.05 0.04 96 1012.4
20260509121015 47 0.0 0.0 0.00 0.05 0.04 96 1012.4
20260509120515 47 0.0 0.0 0.00 0.05 0.04 96 1012.5
20260509120015 47 0.0 0.0 0.00 0.05 0.04 96 1012.7
20260509115515 47 0.0 0.0 0.00 0.05 0.04 96 1012.7
20260509115015 47 0.0 1.0 0.00 0.05 0.04 96 1012.7
20260509114515 46 0.0 2.0 0.00 0.05 0.04 96 1012.8
20260509114015 46 0.0 0.0 0.00 0.05 0.04 96 1012.8
20260509113515 46 0.0 0.0 0.00 0.05 0.04 96 1012.9
20260509113015 46 0.0 0.0 0.00 0.05 0.04 96 1013.0
20260509112515 46 0.0 0.0 0.00 0.05 0.04 96 1012.9
20260509112015 46 0.0 0.0 0.00 0.05 0.04 96 1013.1
20260509111515 46 0.0 0.0 0.00 0.05 0.04 96 1013.0
20260509111015 46 0.0 0.0 0.00 0.05 0.04 96 1013.0
20260509110517 46 0.0 0.0 0.00 0.05 0.04 96 1012.9
20260509110017 46 0.0 0.0 0.00 0.05 0.04 96 1012.9
20260509105517 46 0.0 0.0 0.00 0.05 0.04 96 1012.8
20260509105017 46 0.0 0.0 0.00 0.05 0.04 96 1012.7
20260509104517 46 0.0 0.0 0.00 0.05 0.04 96 1012.6
20260509104017 45 0.0 0.0 0.00 0.05 0.04 96 1012.5
20260509103517 45 0.0 0.0 0.00 0.05 0.04 95 1012.5
20260509103017 45 0.0 0.0 0.00 0.05 0.04 96 1012.6
20260509102517 45 0.0 0.0 0.00 0.05 0.04 96 1012.7
20260509102017 45 0.0 0.0 0.00 0.05 0.04 95 1012.7
20260509101517 45 0.0 0.0 0.00 0.05 0.04 95 1012.7
20260509101018 45 0.0 0.0 0.00 0.05 0.04 95 1012.7
20260509100517 45 0.0 0.0 0.00 0.05 0.04 95 1012.6
20260509100017 45 0.0 0.0 0.00 0.05 0.04 95 1012.6
20260509095517 45 0.0 0.0 0.00 0.05 0.04 95 1012.7
20260509095016 45 0.0 0.0 0.00 0.05 0.04 95 1012.7
20260509094517 45 0.0 0.0 0.00 0.05 0.04 95 1012.7
20260509094017 46 0.0 0.0 0.00 0.05 0.04 95 1012.7
20260509093517 46 0.0 0.0 0.00 0.05 0.04 95 1012.8
20260509093017 46 0.0 0.0 0.00 0.05 0.04 95 1012.8
20260509092516 46 0.0 0.0 0.00 0.05 0.04 95 1012.7
20260509092017 46 0.0 0.0 0.00 0.05 0.04 95 1012.8
20260509091517 46 0.0 0.0 0.00 0.05 0.04 95 1012.9
20260509091017 46 0.0 0.0 0.01 0.05 0.04 95 1013.0
20260509090517 46 0.0 0.0 0.01 0.05 0.04 95 1013.0
20260509090016 46 0.0 0.0 0.01 0.05 0.04 95 1012.9
20260509085516 46 0.0 0.0 0.01 0.05 0.04 95 1012.9
20260509085016 46 0.0 0.0 0.01 0.05 0.04 95 1013.0
20260509084516 46 0.0 0.0 0.01 0.05 0.04 95 1013.1
20260509084017 46 0.0 0.0 0.01 0.05 0.04 95 1013.1
20260509083516 46 0.0 0.0 0.01 0.05 0.04 95 1013.0
20260509083016 47 0.0 0.0 0.01 0.05 0.04 94 1013.0
20260509082516 47 0.0 0.0 0.01 0.05 0.04 94 1013.1
20260509082016 47 0.0 0.0 0.02 0.05 0.04 94 1012.9
20260509081516 47 0.0 0.0 0.02 0.05 0.04 94 1013.0
20260509081016 47 0.0 0.0 0.01 0.04 0.04 94 1012.9
20260509080516 47 0.0 0.0 0.02 0.04 0.03 94 1012.9
20260509080017 47 0.0 0.0 0.02 0.04 0.03 94 1012.8
20260509075516 47 0.0 0.0 0.02 0.04 0.03 94 1012.7
20260509075016 47 0.0 0.0 0.02 0.04 0.03 94 1012.5
20260509074516 47 0.0 0.0 0.02 0.04 0.03 94 1012.6
20260509074016 47 0.0 0.0 0.02 0.04 0.03 94 1012.8
20260509073516 47 0.0 0.0 0.02 0.04 0.03 94 1012.6
20260509073016 47 0.0 0.0 0.03 0.04 0.03 94 1012.7
20260509072516 47 0.0 0.0 0.03 0.04 0.03 94 1012.6
20260509072016 47 0.0 0.0 0.02 0.03 0.02 93 1012.5
20260509071516 47 0.0 0.0 0.02 0.03 0.02 93 1012.4
20260509071016 47 0.0 0.0 0.02 0.03 0.02 93 1012.6
20260509070517 48 0.0 0.0 0.01 0.02 0.01 93 1012.6
20260509070016 48 0.0 0.0 0.01 0.02 0.01 93 1012.6
20260509065516 48 0.0 0.0 0.01 0.02 0.01 93 1012.6
20260509065016 48 0.0 0.0 0.01 0.02 0.01 92 1012.6
20260509064516 48 0.0 0.0 0.01 0.02 0.01 92 1012.7
20260509064017 48 0.0 0.0 0.01 0.02 0.01 92 1012.7
20260509063517 48 0.0 0.0 0.01 0.02 0.01 92 1012.8
20260509063016 47 0.0 0.0 0.00 0.01 0.00 91 1012.9
20260509062517 47 0.0 0.0 0.00 0.01 0.00 91 1012.9
20260509062016 47 0.0 0.0 0.00 0.01 0.00 91 1012.8
20260509061516 47 0.0 0.0 0.00 0.01 0.00 91 1012.8
20260509061016 47 0.0 0.0 0.00 0.01 0.00 91 1012.6
20260509060516 47 0.0 0.0 0.00 0.01 0.00 91 1012.6
20260509060016 47 0.0 0.0 0.00 0.01 0.00 91 1012.6
20260509055516 47 0.0 0.0 0.00 0.01 0.00 91 1012.7
20260509055016 47 0.0 0.0 0.00 0.02 0.00 91 1012.6
20260509054516 47 0.0 0.0 0.00 0.02 0.00 91 1012.6
20260509054016 47 0.0 0.0 0.00 0.02 0.00 91 1012.7
20260509053516 47 0.0 0.0 0.00 0.03 0.00 92 1013.0
20260509053016 47 0.0 0.0 0.00 0.03 0.00 92 1013.0
20260509052516 47 0.0 0.0 0.00 0.03 0.00 91 1013.1
20260509052016 47 0.0 0.0 0.00 0.03 0.00 91 1013.1
20260509051516 47 0.0 0.0 0.00 0.03 0.00 91 1013.0
20260509051016 47 0.0 0.0 0.00 0.03 0.00 91 1013.1
20260509050516 47 0.0 0.0 0.00 0.03 0.00 90 1013.1
20260509050016 47 0.0 0.0 0.00 0.03 0.00 90 1013.1
20260509045516 47 0.0 0.0 0.00 0.03 0.00 90 1013.1
20260509045017 47 0.0 0.0 0.00 0.03 0.00 89 1013.1
20260509044517 48 0.0 0.0 0.00 0.03 0.00 89 1013.0
20260509044016 48 0.0 0.0 0.00 0.03 0.00 89 1013.0
20260509043516 48 0.0 0.0 0.00 0.03 0.00 89 1013.0
20260509043016 48 0.0 0.0 0.00 0.03 0.00 89 1013.0
20260509042516 48 0.0 0.0 0.00 0.03 0.00 89 1013.0
20260509042016 48 0.0 0.0 0.00 0.03 0.00 89 1013.0
20260509041516 49 0.0 0.0 0.00 0.03 0.00 89 1012.9
20260509041016 49 0.0 0.0 0.00 0.03 0.00 89 1013.0
20260509040516 49 0.0 0.0 0.00 0.03 0.00 89 1013.0
20260509040021 49 0.0 0.0 0.00 0.03 0.03 89 1013.1
20260509035515 49 0.0 0.0 0.00 0.03 0.03 88 1013.1
20260509035015 49 0.0 0.0 0.00 0.03 0.03 88 1013.1
20260509034515 49 0.0 0.0 0.00 0.03 0.03 88 1013.0
20260509034016 49 0.0 0.0 0.00 0.03 0.03 88 1013.1
20260509033515 49 0.0 0.0 0.00 0.03 0.03 88 1013.1
20260509033015 49 0.0 0.0 0.00 0.03 0.03 87 1013.2
20260509032515 49 0.0 0.0 0.00 0.03 0.03 87 1013.0
20260509032015 49 0.0 0.0 0.00 0.03 0.03 87 1013.0
20260509031515 49 0.0 0.0 0.00 0.03 0.03 86 1013.1
20260509031015 49 0.0 0.0 0.00 0.03 0.03 86 1013.2
20260509030515 49 0.0 0.0 0.00 0.03 0.03 85 1013.1
20260509030015 49 0.0 0.0 0.00 0.03 0.03 85 1013.1
20260509025515 49 0.0 0.0 0.00 0.03 0.03 84 1013.0
20260509025017 49 0.0 0.0 0.00 0.03 0.03 83 1012.9
20260509024517 49 0.0 0.0 0.00 0.03 0.03 83 1012.8
20260509024017 49 0.0 0.0 0.00 0.03 0.03 83 1012.9
20260509023517 49 0.0 0.0 0.00 0.03 0.03 82 1012.8
20260509023017 49 0.0 0.0 0.00 0.03 0.03 82 1012.8
20260509022517 49 0.0 0.0 0.00 0.03 0.03 82 1012.8
20260509022017 49 0.0 0.0 0.00 0.03 0.03 83 1012.8
20260509021517 49 0.0 0.0 0.00 0.03 0.03 83 1012.7
20260509021017 49 0.0 0.0 0.00 0.03 0.03 83 1012.7
20260509020517 49 0.0 0.0 0.00 0.03 0.03 83 1012.7
20260509020017 49 0.0 0.0 0.00 0.03 0.03 83 1012.8
20260509015517 49 0.0 0.0 0.00 0.03 0.03 81 1012.8
20260509015017 49 0.0 0.0 0.00 0.03 0.03 82 1012.7
20260509014517 49 0.0 0.0 0.00 0.03 0.03 82 1012.6
20260509014017 49 0.0 0.0 0.00 0.03 0.03 81 1012.5
20260509013517 49 0.0 0.0 0.00 0.03 0.03 81 1012.5
20260509013017 49 0.0 0.0 0.00 0.03 0.03 81 1012.5
20260509012516 49 0.0 0.0 0.00 0.03 0.03 80 1012.5
20260509012016 49 0.0 0.0 0.00 0.03 0.03 80 1012.4
20260509011516 49 0.0 0.0 0.00 0.03 0.03 79 1012.3
20260509011022 49 0.0 0.0 0.00 0.03 0.03 78 1012.3
20260509010517 49 0.0 0.0 0.00 0.03 0.03 77 1012.3
20260509010016 49 0.0 0.0 0.00 0.03 0.03 75 1012.3
20260509005516 50 0.0 0.0 0.00 0.03 0.03 75 1012.1
20260509005017 50 0.0 0.0 0.00 0.03 0.03 75 1012.0
20260509004516 51 0.0 0.0 0.00 0.03 0.03 72 1011.8
20260509004016 51 0.0 0.0 0.00 0.03 0.03 71 1011.7
20260509003516 52 0.0 0.0 0.00 0.03 0.03 69 1011.7
20260509003016 52 0.0 0.0 0.00 0.03 0.03 69 1011.6
20260509002517 53 0.0 0.0 0.00 0.03 0.03 67 1011.6